Weather History for Alexandria, LA

Change the Weather History Date:

Tuesday, February 15, 2011

  Actual Average Record
Temperature  
Mean Temperature 58 °F 52 °F  
Max Temperature 70 °F 63 °F 81 °F (1932)
Min Temperature 45 °F 41 °F 16 °F (1905)
Degree Days  
Heating Degree Days 7 13  
Month to date heating degree days 361 220  
Since 1 July heating degree days 1735 1511  
Growing Degree Days 7 (Base 50)    
Moisture  
Dew Point 50 °F    
Average Humidity 76    
Maximum Humidity 100    
Minimum Humidity 51    
Precipitation  
Precipitation 0.00 in 0.17 in 2.45 in (2012)
Month to date precipitation 1.92 2.31  
Year to date precipitation 5.20 7.53  
Snow  
Snow 0.00 in - 6.00 in (1895)
Month to date snowfall 0.0  
Since 1 July snowfall 0.0  
Snow Depth 0.00 in    
Sea Level Pressure  
Sea Level Pressure 30.21 in    
Wind  
Wind Speed 5 mph (SSE)    
Max Wind Speed 13 mph    
Max Gust Speed 16 mph    
Visibility 8 miles    
Events Fog    
T = Trace of Precipitation, MM = Missing Value Source: NWS Daily Summary

Daily Weather History Graph

Daily Weather History Graph

Search for Another Location

Airport:

Trip Planner

Search our weather history database for the weather conditions in past years. The results will help you decide how hot, cold, wet, or windy it might be!

Date:

Astronomy

Feb. 15, 2011 Rise Set
Actual Time 6:51 AM CST 5:57 PM CST
Civil Twilight 6:27 AM CST 6:22 PM CST
Nautical Twilight 5:58 AM CST 6:50 PM CST
Astronomical Twilight 5:30 AM CST 7:18 PM CST
Moon 3:16 PM CST (2/15) 4:34 AM CST (2/15)
Length of Visible Light 11h 55m
Length of Day
11h 05m
Waxing Gibbous, 91% of the Moon is Illuminated
Feb 15
Waxing Gibbous
Feb 18
Full
Feb 24
Last Quarter
Mar 4
New
Mar 12
First Quarter

Hourly Weather History & Observations

Time (CST) Temp. Dew Point Humidity Pressure Visibility Wind Dir Wind Speed Gust Speed Precip Events Conditions
12:53 AM 52.0 °F 50.0 °F 93% 30.22 in 10.0 mi SE 3.5 mph - N/A   Clear
1:53 AM 50.0 °F 46.9 °F 89% 30.21 in 10.0 mi Calm Calm - N/A   Clear
2:53 AM 48.9 °F 46.0 °F 90% 30.22 in 10.0 mi Calm Calm - N/A   Clear
3:53 AM 51.1 °F 48.9 °F 92% 30.22 in 10.0 mi South 3.5 mph - N/A   Clear
4:53 AM 48.9 °F 48.0 °F 97% 30.22 in 6.0 mi East 3.5 mph - N/A   Clear
5:09 AM 46.4 °F 46.4 °F 100% 30.21 in 10.0 mi Calm Calm - N/A   Partly Cloudy
5:53 AM 46.0 °F 44.1 °F 93% 30.23 in 10.0 mi Calm Calm - N/A   Mostly Cloudy
5:58 AM 44.6 °F 44.6 °F 100% 30.22 in 10.0 mi Calm Calm - N/A Fog Shallow Fog
6:53 AM 46.0 °F 45.0 °F 96% 30.25 in 0.2 mi Calm Calm - N/A Fog Fog
7:53 AM 48.9 °F 48.0 °F 97% 30.25 in 0.2 mi SE 4.6 mph - N/A Fog Fog
8:18 AM 51.8 °F 51.8 °F 100% 30.24 in 0.5 mi SE 4.6 mph - N/A Fog Fog
8:42 AM 51.8 °F 51.8 °F 100% 30.25 in 0.2 mi SE 4.6 mph - N/A Fog Fog
8:53 AM 53.1 °F 52.0 °F 96% 30.26 in 0.5 mi ESE 5.8 mph - N/A Fog Fog
9:07 AM 53.6 °F 53.6 °F 100% 30.25 in 1.2 mi SE 5.8 mph - N/A Fog Fog
9:18 AM 55.4 °F 53.6 °F 94% 30.25 in 3.0 mi SE 4.6 mph - N/A Fog Fog
9:44 AM 55.4 °F 53.6 °F 94% 30.25 in 10.0 mi SE 4.6 mph - N/A Fog Fog
9:53 AM 57.9 °F 55.0 °F 90% 30.27 in 10.0 mi Variable 4.6 mph - N/A Fog Fog
10:53 AM 63.0 °F 55.9 °F 78% 30.26 in 10.0 mi Calm Calm - N/A   Mostly Cloudy
11:53 AM 66.9 °F 54.0 °F 63% 30.24 in 10.0 mi SSW 5.8 mph - N/A   Overcast
12:53 PM 68.0 °F 51.1 °F 55% 30.20 in 10.0 mi WSW 9.2 mph - N/A   Overcast
1:53 PM 69.1 °F 50.0 °F 51% 30.17 in 10.0 mi SW 9.2 mph - N/A   Overcast
2:53 PM 69.1 °F 51.1 °F 53% 30.15 in 10.0 mi South 6.9 mph - N/A   Overcast
3:53 PM 70.0 °F 51.1 °F 51% 30.14 in 10.0 mi South 8.1 mph - N/A   Overcast
4:53 PM 68.0 °F 50.0 °F 52% 30.13 in 10.0 mi SSE 8.1 mph - N/A   Mostly Cloudy
5:53 PM 62.1 °F 50.0 °F 65% 30.13 in 10.0 mi SSE 6.9 mph - N/A   Partly Cloudy
6:53 PM 59.0 °F 48.9 °F 69% 30.14 in 10.0 mi SSE 3.5 mph - N/A   Clear
7:53 PM 61.0 °F 50.0 °F 67% 30.14 in 10.0 mi South 6.9 mph - N/A   Clear
8:53 PM 59.0 °F 51.1 °F 75% 30.15 in 10.0 mi South 8.1 mph - N/A   Clear
9:53 PM 55.9 °F 50.0 °F 80% 30.16 in 10.0 mi South 8.1 mph - N/A   Clear
10:53 PM 55.0 °F 50.0 °F 83% 30.16 in 10.0 mi SSW 6.9 mph - N/A   Clear
11:53 PM 51.1 °F 48.0 °F 89% 30.17 in 10.0 mi SSE 3.5 mph - N/A   Clear